Find Starlink 32643

NORAD ID: 62233 Int'l Des: 2024-231 Owner: SPXS Country: US Constellation: starlink operational
LEOCIRCULAR

Live-Position

3D-Globus wird geladen...

Über Starlink 32643

Beschreibung wird geladen...

Nächste Überflüge

Passes for default location (London). Set your location on the main map for personalized predictions.

Höhenverlauf

Loading altitude history...

Zweizeiliger Elementsatz

1 62233U 24231R 26126.84541931 .00015817 00000-0 52036-3 0 9991
2 62233 53.1600 296.6224 0000945 116.3681 243.7417 15.31701034 80841
Epoch: 6. Mai 2026 • Age: 17 hours

Aktueller Status

Höhe 481.0 km
Geschwindigkeit 7.62 km/s
Subsatellitenpunkt -32.58°S, 82.72°E
Startdatum 5. Dez. 2024
Alter 1.4 years
Typ internet

Technische Details

Klassifizierung Payload
Masse 730.00 kg
Trockenmasse 700.00 kg
Gesamtmasse 730.00 kg
Länge 0.30 m
Durchmesser 4.10 m
Spannweite 29.00 m
Form Box + pan
Hersteller SPXS
Bus-Typ Starlink V2M
Phasenstatus In Orbit
Besitzer/Staat SPXS/US

Most Searched